Location: Singen
(47.7626°N, 8.8449°E)
Time: 10:59:02
(UTC+00:00)

Daily predictions for brighter satellites

Satellite Brightness Start Highest point End
(mag) Time Altitude Azimuth Time Altitude Azimuth Time Altitude Azimuth
USA 229 DEB 3.8 18:29:56 10° SW 18:35:57 77° NW 18:42:46 10° NE
USA 229 3.8 18:29:59 10° SW 18:36:00 78° NW 18:42:50 10° NE
Cosmos 2278 3.8 18:33:32 10° SSW 18:39:12 87° WNW 18:44:55 10° NNE
Cosmos 1844 Rocket 3.5 18:35:08 10° NW 18:40:33 53° WSW 18:45:55 10° S
Cosmos 2228 Rocket 3.2 18:38:27 10° N 18:42:56 62° ENE 18:47:20 10° SSE
Cosmos 2360 Rocket 2.2 18:38:16 10° SSW 18:43:51 69° ESE 18:49:29 10° NNE
COSMO-SKYMED 1 4.2 18:43:09 10° N 18:46:59 38° WNW 18:50:47 10° SW
BlueWalker 3 3.8 18:45:34 10° W 18:48:29 23° SW 18:51:23 10° S
Cosmos 2184 Rocket 4.1 18:45:23 10° S 18:51:40 66° E 18:57:58 10° NNE
Cosmos 2322 Rocket 2.2 18:46:09 10° SSW 18:51:46 84° ESE 18:57:25 10° NNE
Cosmos 1666 Rocket 3.5 18:49:47 10° S 18:54:05 88° WNW 18:58:24 10° N
Cosmos 1633 Rocket 3.0 18:50:46 10° S 18:55:08 79° E 18:59:32 10° NNE
Cosmos 1340 Rocket 2.7 18:52:10 10° SSW 18:55:50 80° WNW 18:59:30 10° N
ADEOS 4.3 18:52:37 10° SE 18:57:20 36° ENE 19:02:05 10° N
Feng Yun 1-1 Rocket 4.5 18:53:16 10° SE 18:58:40 52° ENE 19:04:00 10° N
BREEZE-M DEB (TANK) 2.3 18:57:09 10° SW 18:59:18 41° SSE 19:02:06 10° ENE
SL-16 R/B 3.2 18:54:17 10° SW 18:59:47 53° WNW 19:05:21 10° NNE
Terra 2.5 18:55:59 10° SE 19:00:14 36° ENE 19:04:30 10° N
ATLAS 5 CENTAUR R/B 3.8 18:59:50 10° WNW 19:01:32 14° NNW 19:03:19 10° N
CSL-04 Debris 4.1 18:57:27 10° SSE 19:02:47 76° ENE 19:08:11 10° NNW
Cosmos 1898 Rocket 3.4 18:59:43 10° S 19:04:56 69° ESE 19:10:07 10° NNE
CZ-4 R/B 1.2 19:01:17 10° SSE 19:05:04 65° ENE 19:08:49 10° N
Resurs 01 Rocket 3.8 19:03:25 10° SSW 19:07:11 28° W 19:10:58 10° NW
Okean O Rocket 2.9 19:06:42 13° ESE 19:09:25 23° ENE 19:12:52 10° NNE
SL-08 R/B 4.3 19:05:41 10° NE 19:09:54 28° E 19:14:07 10° SSE
Meteor 1-24 Rocket 4.0 19:08:55 10° NNW 19:14:20 69° W 19:19:54 10° S
Cosmos 2333 4.2 19:08:52 10° SSW 19:14:28 87° WNW 19:20:07 10° NNE
Cosmos 1538 Rocket 4.5 19:09:43 10° NNW 19:14:48 61° WSW 19:19:51 10° S
Cosmos 372 Rocket 4.2 19:10:35 10° SSW 19:15:48 75° WNW 19:21:04 10° NNE
Cosmos 1680 Rocket 3.8 19:13:18 10° NNW 19:18:24 51° ENE 19:22:22 16° SE
Cosmos 2219 Rocket 2.1 19:14:44 10° SSW 19:20:18 81° ESE 19:25:55 10° NNE
SPOT 5 3.2 19:15:43 10° S 19:20:28 63° WSW 19:25:00 10° NNW
CZ-4B R/B 4.0 19:19:16 10° S 19:22:48 62° WSW 19:26:29 10° NNW
Cosmos 2074 Rocket 4.3 19:17:12 10° SSW 19:23:25 74° W 19:29:42 10° N
Meteor 1-31 Rocket 3.0 19:21:59 10° S 19:25:27 59° WSW 19:28:57 10° NNW
Cosmos 1937 Rocket 3.4 19:21:11 10° SSW 19:26:28 78° ESE 19:31:47 10° NNE
Cosmos 1339 Rocket 4.5 19:24:07 10° N 19:30:28 86° E 19:36:40 10° S
SL-24 R/B - RUBIN 2 3.7 19:28:10 10° NNW 19:32:32 62° NE 19:35:18 23° SE
USA 186 3.1 19:34:28 14° NE 19:34:28 14° NE 19:35:11 10° NNE
Cosmos 923 Rocket 4.0 19:29:05 10° NNW 19:34:26 90° ENE 19:38:50 15° SSE
USA 234 3.5 19:28:04 10° NE 19:34:35 72° NNW 19:41:07 10° WSW
SL-8 Rocket 4.3 19:29:48 10° SSE 19:35:41 46° E 19:41:38 10° NNE
Cosmos 2112 Rocket 4.1 19:30:49 10° NNW 19:36:00 59° ENE 19:39:16 22° SE
COSMOS 2428 3.1 19:32:26 10° S 19:37:41 39° ESE 19:42:57 10° NE
NOSS 2-3 (E) 4.3 19:33:01 10° NW 19:37:59 73° NE 19:42:20 22° SE
PAYLOAD B 4.3 19:34:14 10° SSE 19:39:44 83° WSW 19:45:16 10° NNW
Cosmos 1953 4.3 19:36:49 10° SW 19:39:56 27° WNW 19:43:05 10° NNW
CZ-4B R/B 3.2 19:35:07 12° SSE 19:40:15 83° ENE 19:45:53 10° NNW
MetOp-B 4.1 19:35:40 12° SSE 19:40:39 84° ENE 19:46:03 10° NNW
CZ-4B DEB 4.4 19:35:28 10° S 19:40:53 71° WSW 19:46:23 10° NNW
NOSS 2-3 (C) 4.4 19:36:34 10° NW 19:41:26 61° NE 19:45:27 23° ESE
Cosmos 2278 Rocket 2.9 19:39:39 10° NNW 19:44:58 39° NE 19:47:49 24° ESE
Cosmos 2366 rocket 4.2 19:40:01 11° SSE 19:45:39 49° E 19:51:32 10° NNE
SKYMED 3 4.1 19:42:19 10° NNE 19:46:13 70° ESE 19:50:04 10° S
Ariane Rocket 4.3 19:46:48 21° E 19:48:27 25° ENE 19:52:29 10° N
Cosmos 2327 Rocket 4.4 19:42:50 10° S 19:48:58 76° E 19:55:14 10° NNE
Cosmos 2333 Rocket 4.2 19:44:25 10° WSW 19:49:23 30° NW 19:54:22 10° NNE
NOSS 3-2 (C) 4.1 19:42:43 10° NW 19:50:03 84° SW 19:56:23 21° SSE
Cosmos 1703 Rocket 4.3 19:50:14 10° NNW 19:54:26 51° W 19:58:35 10° S
Geosat 4.2 19:49:46 10° NNE 19:54:46 72° WNW 19:59:44 10° SW
USA 32 4.4 19:53:57 27° SE 19:56:16 44° E 20:01:12 10° NNE
Spot 2 Rocket 3.5 19:53:55 27° SE 19:56:39 65° ENE 20:01:38 10° N
BREEZE-M DEB (TANK) 2.3 19:54:30 10° WNW 19:57:03 68° N 19:59:32 24° E
Lacrosse 5 rocket 0.5 19:56:12 10° SW 19:59:25 86° SE 20:00:40 34° NE
CZ-2C R/B 4.3 20:00:39 15° NE 20:00:39 15° NE 20:01:46 10° NNE
NOSS 2-3 (D) 4.2 19:55:15 10° NW 20:00:18 87° SW 20:03:53 28° SE
ARIANE 6 FM1 Upper Stage 4.0 19:56:52 10° WSW 20:00:46 40° NW 20:04:37 10° NNE
Cosmos 1809 Rocket 4.5 19:55:35 10° N 20:01:42 64° ENE 20:05:08 27° SSE
ERS-1 Rocket 3.5 19:57:46 12° S 20:02:21 57° W 20:07:19 10° NNW
Cosmos 1378 Rocket 4.4 19:58:56 10° N 20:02:53 31° ENE 20:03:21 30° E
Cosmos 1933 Rocket 3.9 20:00:24 10° SSW 20:04:43 67° W 20:09:07 10° N
Cosmos 1943 Rocket 2.2 20:05:01 10° NNW 20:10:42 68° ENE 20:12:58 37° SE
Cosmos 2218 Rocket 3.9 20:06:05 16° S 20:11:00 70° E 20:17:07 10° NNE
YAOGAN 11 3.9 20:07:45 10° NNE 20:12:00 74° ESE 20:13:55 31° S
Meteor 1-11 4.4 20:09:23 10° N 20:14:51 53° ENE 20:16:33 39° SE
Meteor 2-15 4.4 20:11:09 22° S 20:15:07 66° E 20:21:09 10° NNE
In-Cosmos 22 Rocket 4.2 20:10:27 10° NNW 20:15:47 71° W 20:19:03 24° S
USA 59 Rocket 1.4 20:14:27 10° NNW 20:16:55 19° NE 20:17:17 19° NE
MOS 1-B 4.3 20:14:21 28° SSE 20:17:36 86° WSW 20:23:26 10° NNW
Cosmos 1733 Rocket 3.2 20:18:21 49° E 20:18:28 49° E 20:22:42 10° NNE
Cosmos 192 4.4 20:18:37 43° SSE 20:19:48 55° ESE 20:24:36 10° NNE
Cosmos 1959 Rocket 4.4 20:15:53 18° S 20:20:50 78° E 20:27:11 10° NNE
SeaSat 1 3.9 20:19:54 21° ENE 20:21:18 24° NE 20:25:13 10° N
CZ-4B R/B 3.6 20:20:21 44° ESE 20:21:25 53° ENE 20:26:05 10° N
NOSS 3-4 (A) 4.0 20:23:13 30° E 20:23:13 30° E 20:26:50 10° NE
Okean-O 2.6 20:20:35 40° S 20:22:07 77° WSW 20:26:31 10° NNW
NOSS 3-4 (C) 4.0 20:23:46 30° E 20:23:46 30° E 20:27:21 10° NE
IRS-1C Rocket 4.5 20:20:58 40° ESE 20:22:15 48° ENE 20:27:19 10° N
Cosmos 494 Rocket 4.3 20:19:00 10° NNW 20:24:06 60° WSW 20:26:29 31° S
Cosmos 1821 Rocket 3.9 20:22:24 31° SSE 20:25:28 65° E 20:31:43 10° NNE
Cosmos 2360 Rocket 4.5 20:23:43 10° W 20:28:21 25° NW 20:33:00 10° N
Cosmos 1048 Rocket 3.9 20:23:28 10° NNW 20:28:36 77° ENE 20:29:52 52° SE
Timation 2 Rocket 4.0 20:27:52 10° NNW 20:34:09 76° ENE 20:36:19 44° SE
Terra 3.4 20:34:16 13° SSW 20:37:47 30° W 20:41:54 10° NNW
CZ-4 R/B 4.2 20:38:12 10° WSW 20:39:28 11° W 20:40:46 10° WNW
Aureole 3 3.5 20:35:28 10° N 20:39:36 80° E 20:40:03 71° SE
Meteor 2-21 4.4 20:34:24 10° N 20:40:33 89° E 20:42:49 42° S
Okean O Rocket 2.6 20:43:57 32° SW 20:45:22 42° W 20:49:32 10° NNW
Cosmos 2242 Rocket 3.6 20:41:21 10° NNW 20:45:53 77° W 20:46:21 68° SSW
Cosmos 2237 Rocket 2.2 20:47:30 58° SE 20:47:47 58° ESE 20:53:23 10° NE
Cosmos 1000 Rocket 4.5 20:41:44 10° N 20:47:53 62° ENE 20:49:04 52° SE
Cosmos 1980 3.6 20:47:57 59° SSE 20:48:37 64° ESE 20:54:12 10° NNE
Cosmos 1025 Rocket 3.6 20:45:57 10° N 20:49:24 46° NE 20:49:24 46° NE
Cosmos 1125 Rocket 4.0 20:51:20 43° ENE 20:51:20 43° ENE 20:55:23 10° NNE
CZ-4B R/B 3.2 20:51:35 56° NW 20:51:35 56° NW 20:54:36 10° NNW
ASTEX 1 3.4 20:50:47 57° SSW 20:51:44 75° W 20:56:39 10° N
Cosmos 2322 4.3 20:46:19 10° SW 20:51:55 56° WNW 20:57:34 10° NNE
Cosmos 2292 Rocket 3.9 20:48:13 10° N 20:53:58 64° ENE 20:54:03 64° E
Cosmos 1400 Rocket 4.1 21:03:02 31° N 21:03:02 31° N 21:05:00 10° N
IRS-P2 Rocket 4.4 21:02:29 73° SE 21:02:54 80° ENE 21:08:11 10° NNW
SPOT 3 Rocket 3.7 21:02:10 56° SSW 21:03:04 67° WSW 21:08:15 10° NNW
SL-08 R/B 4.3 21:11:04 66° ESE 21:11:31 69° E 21:17:36 10° NNE
Meteor 2-21 Rocket 4.5 21:07:28 10° NNW 21:13:34 75° W 21:14:51 56° SSW
USA 234 4.3 21:11:02 10° ENE 21:17:07 42° N 21:23:10 10° WNW
Cosmos 2369 Rocket 3.2 21:15:31 10° NNW 21:20:33 33° NE 21:20:57 32° ENE
Cosmos 1674 Rocket 4.1 21:16:25 10° NNW 21:19:57 54° NW 21:19:57 54° NW
Helios 1B rocket 4.5 21:23:49 18° NNE 21:23:49 18° NNE 21:24:58 10° N
COSMOS 2428 4.0 21:16:31 10° WSW 21:21:53 40° NW 21:27:18 10° NNE
NOSS 0 Rocket 4.4 21:18:36 10° SW 21:24:45 59° NW 21:30:56 10° NNE
Cosmos 1727 Rocket 4.4 21:20:45 10° NNW 21:26:58 57° W 21:28:33 45° SW
Ariane Rocket 3.4 21:26:52 51° WSW 21:27:02 51° W 21:31:57 10° NNW
Cosmos 2278 Rocket 3.0 21:23:48 10° NW 21:29:03 40° WSW 21:29:39 39° WSW
USA 238 DEB 4.0 21:23:22 10° NW 21:30:45 69° SW 21:32:16 57° S
USA 238 4.0 21:23:32 10° NW 21:30:55 69° SW 21:32:26 57° S
Cosmos 2221 Rocket 4.4 21:26:57 10° N 21:30:11 49° NNW 21:30:11 49° NNW
Lacrosse 5 rocket 3.9 21:33:49 10° WNW 21:34:04 11° WNW 21:34:04 11° WNW
Cosmos 1656 Rocket 3.8 21:45:35 10° NNW 21:50:17 67° NW 21:50:17 67° NW
Cosmos 1943 Rocket 3.9 21:49:42 10° NW 21:53:52 21° W 21:54:29 21° WSW
SL-16 R/B 3.3 21:58:05 34° NE 21:58:05 34° NE 22:01:22 10° NE
SeaSat 1 3.2 21:59:30 49° NW 21:59:30 49° NW 22:03:12 10° NNW
Cosmos 2123 Rocket 4.4 21:57:27 10° NNW 22:03:31 54° W 22:03:50 54° WSW
Cosmos 1934 Rocket 4.2 22:03:44 64° W 22:04:07 65° W 22:10:22 10° N
USA 59 Rocket 2.4 22:02:13 10° NW 22:02:48 15° NW 22:02:48 15° NW
NOSS 3-4 (A) 4.0 22:10:29 34° W 22:12:20 47° NW 22:18:05 10° NE
NOSS 3-4 (C) 4.0 22:11:02 35° W 22:12:49 47° NW 22:18:38 10° NE
Cosmos 2285 Rocket 4.1 22:19:16 73° N 22:19:16 73° N 22:25:00 10° NNE
ALOS 2 4.5 22:29:40 28° N 22:29:40 28° N 22:31:52 10° N
NOSS 3-1 (C) 4.0 22:20:59 10° NW 22:27:50 69° NE 22:28:44 64° E
ATLAS 5 CENTAUR R/B 4.2 22:27:23 10° N 22:29:06 12° NNE 22:29:34 12° NNE
Cosmos 1605 Rocket 4.2 22:32:45 63° NW 22:32:45 63° NW 22:38:14 10° N
Cosmos 2237 Rocket 3.9 22:29:12 19° W 22:32:12 29° NW 22:37:08 10° NNE
Cosmos 2297 4.3 22:33:09 10° NNW 22:37:29 53° NW 22:37:29 53° NW
COSMOS 2455 3.8 22:39:26 10° NNW 22:45:04 39° NE 22:45:16 39° NE
Cosmos 2100 Rocket 4.4 23:00:25 56° NNE 23:00:25 56° NNE 23:05:15 10° NNE
USA 234 4.2 22:53:15 10° E 22:59:21 43° N 23:05:26 10° WNW
Cosmos 2369 Rocket 3.5 22:59:23 10° NW 23:02:43 33° WNW 23:02:43 33° WNW
NOSS 3-1 (A) 4.1 23:12:04 10° NW 23:18:59 68° NE 23:19:58 62° E
Cosmos 1943 4.1 23:21:35 45° NNE 23:21:35 45° NNE 23:25:28 10° NNE
SJ 16-02 3.7 23:31:46 10° NNW 23:33:17 21° N 23:33:17 21° N
SL-16 R/B 3.7 23:39:53 29° NW 23:40:15 29° NW 23:45:11 10° NNE
ACS3 Solar Sail 3.3 23:36:09 10° NE 23:40:25 25° E 23:40:25 25° E
Cosmos 1802 Rocket 4.3 23:43:35 64° NNW 23:43:35 64° NNW 23:48:55 10° N
CZ-2C R/B 3.5 23:44:18 48° NNW 23:44:18 48° NNW 23:48:12 10° NNW
Cosmos 1725 Rocket 4.3 23:48:08 63° NNW 23:48:08 63° NNW 23:53:28 10° N
